Keene, NH

5:26 AM EDT on July 25, 2017 (GMT -0400)
Dillant-Hopkins

Weather History for KEEN - February, 2014

Change the Weather History Date:

Wednesday, February 26, 2014

  Actual Average Record
Temperature  
Mean Temperature 14 °F -  
Max Temperature 24 °F 35 °F 65 °F (1957)
Min Temperature 3 °F 15 °F -15 °F (1950)
Degree Days  
Heating Degree Days 52    
Moisture  
Dew Point -3 °F    
Average Humidity 52    
Maximum Humidity 78    
Minimum Humidity 28    
Precipitation  
Precipitation 0.00 in - - ()
Sea Level Pressure  
Sea Level Pressure 29.83 in    
Wind  
Wind Speed 5 mph (WSW)    
Max Wind Speed 23 mph    
Max Gust Speed 30 mph    
Visibility 10 miles    
Events      
Averages and records for this station are not official NWS values.
T = Trace of Precipitation, MM = Missing Value Source: NWS Daily Summary

Daily Weather History Graph

Daily Weather History Graph

Search for Another Location

Airport or City:

Trip Planner

Search our weather history database for the weather conditions in past years. The results will help you decide how hot, cold, wet, or windy it might be!

Date:

Astronomy

Feb. 26, 2014 Rise Set
Actual Time 6:29 AM EST 5:34 PM EST
Civil Twilight 6:01 AM EST 6:03 PM EST
Nautical Twilight 5:28 AM EST 6:36 PM EST
Astronomical Twilight 4:55 AM EST 7:08 PM EST
Moon 4:16 AM EST (2/26) 2:43 PM EST (2/26)
Length of Visible Light 12h 01m
Length of Day
11h 04m
Waning Crescent, 10% of the Moon is Illuminated
Feb 26
Waning Crescent
Mar 1
New
Mar 8
First Quarter
Mar 16
Full
Mar 23
Last Quarter

Hourly Weather History & Observations

Time (EST) Temp. Windchill Dew Point Humidity Pressure Visibility Wind Dir Wind Speed Gust Speed Precip Events Conditions
12:15 AM 10.4 °F 0.8 °F -0.4 °F 62% 29.89 in 10.0 mi South 5.8 mph - N/A   Clear
12:35 AM 10.4 °F - 1.4 °F 67% 29.89 in 10.0 mi Calm Calm - N/A   Clear
12:55 AM 10.4 °F - 1.4 °F 67% 29.89 in 10.0 mi Calm Calm - N/A   Clear
1:15 AM 10.4 °F 4.0 °F 1.4 °F 67% 29.89 in 10.0 mi South 3.5 mph - N/A   Clear
1:35 AM 10.4 °F 2.2 °F 1.4 °F 67% 29.89 in 10.0 mi SSW 4.6 mph - N/A   Clear
1:55 AM 8.6 °F 2.0 °F -0.4 °F 67% 29.88 in 10.0 mi South 3.5 mph - N/A   Clear
2:15 AM 8.6 °F 0.1 °F 1.4 °F 73% 29.88 in 10.0 mi South 4.6 mph - N/A   Clear
2:35 AM 6.8 °F -2.0 °F -0.4 °F 72% 29.88 in 10.0 mi South 4.6 mph - N/A   Clear
2:55 AM 6.8 °F -0.1 °F -2.2 °F 67% 29.88 in 10.0 mi South 3.5 mph - N/A   Clear
3:15 AM 6.8 °F - -0.4 °F 72% 29.88 in 10.0 mi Calm Calm - N/A   Mostly Cloudy
3:35 AM 6.8 °F - -0.4 °F 72% 29.87 in 10.0 mi Calm Calm - N/A   Overcast
3:55 AM 6.8 °F - -0.4 °F 72% 29.86 in 10.0 mi Calm Calm - N/A   Mostly Cloudy
4:15 AM 6.8 °F - -0.4 °F 72% 29.86 in 10.0 mi Calm Calm - N/A   Scattered Clouds
4:35 AM 6.8 °F - -0.4 °F 72% 29.85 in 10.0 mi Calm Calm - N/A   Mostly Cloudy
4:55 AM 6.8 °F - -0.4 °F 72% 29.85 in 10.0 mi Calm Calm - N/A   Scattered Clouds
5:15 AM 5.0 °F - -2.2 °F 72% 29.85 in 10.0 mi Calm Calm - N/A   Mostly Cloudy
5:35 AM 5.0 °F -2.1 °F -2.2 °F 72% 29.84 in 10.0 mi South 3.5 mph - N/A   Overcast
5:55 AM 5.0 °F - -2.2 °F 72% 29.84 in 10.0 mi Calm Calm - N/A   Overcast
6:15 AM 5.0 °F - -2.2 °F 72% 29.83 in 10.0 mi Calm Calm - N/A   Partly Cloudy
6:35 AM 3.2 °F - -2.2 °F 78% 29.83 in 10.0 mi Calm Calm - N/A   Clear
6:55 AM 5.0 °F - -2.2 °F 72% 29.82 in 10.0 mi Calm Calm - N/A   Scattered Clouds
7:15 AM 6.8 °F - -2.2 °F 67% 29.83 in 10.0 mi Calm Calm - N/A   Scattered Clouds
7:35 AM 6.8 °F - -0.4 °F 72% 29.83 in 10.0 mi Calm Calm - N/A   Partly Cloudy
7:55 AM 6.8 °F - -0.4 °F 72% 29.83 in 10.0 mi Calm Calm - N/A   Clear
8:15 AM 8.6 °F - -0.4 °F 67% 29.83 in 10.0 mi Calm Calm - N/A   Clear
8:35 AM 8.6 °F - 1.4 °F 73% 29.83 in 10.0 mi Calm Calm - N/A   Clear
8:55 AM 10.4 °F - 3.2 °F 73% 29.82 in 10.0 mi Calm Calm - N/A   Clear
9:15 AM 12.2 °F - 5.0 °F 73% 29.82 in 10.0 mi Calm Calm - N/A   Clear
9:35 AM 15.8 °F - 3.2 °F 58% 29.82 in 10.0 mi Calm Calm - N/A   Partly Cloudy
9:55 AM 17.6 °F 5.0 °F 3.2 °F 53% 29.81 in 10.0 mi SSW 11.5 mph - N/A   Mostly Cloudy
10:15 AM 19.4 °F 8.6 °F 3.2 °F 49% 29.81 in 10.0 mi SW 9.2 mph - N/A   Scattered Clouds
10:35 AM 21.2 °F 9.5 °F 6.8 °F 54% 29.81 in 10.0 mi SW 11.5 mph - N/A   Clear
10:55 AM 21.2 °F 12.6 °F 6.8 °F 54% 29.80 in 10.0 mi WSW 6.9 mph 17.3 mph N/A   Scattered Clouds
11:15 AM 24.8 °F 12.4 °F 5.0 °F 43% 29.79 in 10.0 mi SW 15.0 mph 23.0 mph N/A   Mostly Cloudy
11:35 AM 24.8 °F 12.9 °F 3.2 °F 40% 29.79 in 10.0 mi West 13.8 mph 25.3 mph N/A   Overcast
11:55 AM 24.8 °F 12.4 °F 1.4 °F 36% 29.78 in 10.0 mi SW 15.0 mph 28.8 mph N/A   Mostly Cloudy
12:15 PM 24.8 °F 9.6 °F -0.4 °F 34% 29.77 in 10.0 mi WNW 23.0 mph 29.9 mph N/A   Scattered Clouds
12:35 PM 23.0 °F 9.6 °F -0.4 °F 36% 29.77 in 10.0 mi West 16.1 mph 27.6 mph N/A   Partly Cloudy
12:55 PM 23.0 °F 10.6 °F -0.4 °F 36% 29.77 in 10.0 mi WNW 13.8 mph 21.9 mph N/A   Mostly Cloudy
1:15 PM 21.2 °F 5.6 °F -0.4 °F 39% 29.77 in 10.0 mi WNW 20.7 mph 29.9 mph N/A   Scattered Clouds
1:35 PM - - - N/A% 29.77 in 10.0 mi West 17.3 mph 25.3 mph N/A   Partly Cloudy
1:55 PM 23.0 °F 10.1 °F -0.4 °F 36% 29.77 in 10.0 mi NW 15.0 mph 23.0 mph N/A   Partly Cloudy
2:15 PM 21.2 °F 8.9 °F -2.2 °F 36% 29.77 in 10.0 mi WNW 12.7 mph 24.2 mph N/A   Scattered Clouds
2:35 PM 21.2 °F 8.9 °F -2.2 °F 36% 29.77 in 10.0 mi WNW 12.7 mph 21.9 mph N/A   Mostly Cloudy
2:55 PM - - - N/A% 29.77 in 10.0 mi WSW 13.8 mph 25.3 mph N/A   Partly Cloudy
3:15 PM 21.2 °F 8.9 °F -5.8 °F 30% 29.78 in 10.0 mi West 12.7 mph 24.2 mph N/A   Partly Cloudy
3:35 PM 21.2 °F 8.9 °F -7.6 °F 28% 29.79 in 10.0 mi West 12.7 mph 26.5 mph N/A   Clear
3:55 PM 21.2 °F 8.9 °F -7.6 °F 28% 29.79 in 10.0 mi West 12.7 mph 20.7 mph N/A   Clear
4:15 PM 21.2 °F 7.8 °F -7.6 °F 28% 29.80 in 10.0 mi West 15.0 mph 18.4 mph N/A   Clear
4:35 PM - - - N/A% 29.80 in 10.0 mi WNW 11.5 mph 21.9 mph N/A   Clear
4:55 PM 19.4 °F 5.5 °F -9.4 °F 28% 29.81 in 10.0 mi West 15.0 mph 21.9 mph N/A   Clear
5:15 PM 17.6 °F 6.4 °F -9.4 °F 30% 29.82 in 10.0 mi WNW 9.2 mph - N/A   Clear
5:35 PM 17.6 °F 8.2 °F -9.4 °F 30% 29.82 in 10.0 mi West 6.9 mph - N/A   Clear
5:55 PM 15.8 °F 6.1 °F -9.4 °F 32% 29.83 in 10.0 mi West 6.9 mph - N/A   Clear
6:15 PM 15.8 °F 5.1 °F -9.4 °F 32% 29.83 in 10.0 mi WNW 8.1 mph - N/A   Clear
6:35 PM 15.8 °F 8.6 °F -9.4 °F 32% 29.84 in 10.0 mi West 4.6 mph - N/A   Clear
6:55 PM 15.8 °F 7.2 °F -9.4 °F 32% 29.84 in 10.0 mi West 5.8 mph - N/A   Clear
7:15 PM 14.0 °F 3.9 °F -9.4 °F 35% 29.84 in 10.0 mi West 6.9 mph - N/A   Clear
7:35 PM 14.0 °F 8.2 °F -9.4 °F 35% 29.84 in 10.0 mi WSW 3.5 mph - N/A   Clear
7:55 PM 12.2 °F 6.1 °F -9.4 °F 38% 29.83 in 10.0 mi West 3.5 mph - N/A   Clear
8:15 PM 12.2 °F - -9.4 °F 38% 29.84 in 10.0 mi Calm Calm - N/A   Clear
8:35 PM 12.2 °F - -9.4 °F 38% 29.83 in 10.0 mi Calm Calm - N/A   Clear
8:55 PM 12.2 °F 6.1 °F -9.4 °F 38% 29.83 in 10.0 mi WNW 3.5 mph - N/A   Clear
9:15 PM 12.2 °F - -9.4 °F 38% 29.82 in 10.0 mi Calm Calm - N/A   Clear
9:35 PM 10.4 °F - -9.4 °F 41% 29.82 in 10.0 mi Calm Calm - N/A   Clear
9:55 PM 8.6 °F - -9.4 °F 44% 29.83 in 10.0 mi Calm Calm - N/A   Clear
10:15 PM 6.8 °F - -9.4 °F 48% 29.83 in 10.0 mi Calm Calm - N/A   Clear
10:35 PM 6.8 °F - -7.6 °F 52% 29.84 in 10.0 mi Calm Calm - N/A   Clear
10:55 PM 6.8 °F - -7.6 °F 52% 29.83 in 10.0 mi Calm Calm - N/A   Clear
11:15 PM 5.0 °F - -7.6 °F 56% 29.83 in 10.0 mi Calm Calm - N/A   Clear
11:35 PM 3.2 °F - -9.4 °F 56% 29.83 in 10.0 mi Calm Calm - N/A   Clear
11:55 PM 3.2 °F - -9.4 °F 56% 29.83 in 10.0 mi Calm Calm - N/A   Clear